Hourly Weather Rubtsi

Today, 10 April, Saturday

Time Temperature Precipitation Wind Pressure Humidity
00:00 +4°C° 0 mm 2 mps 756 mmHg 56%
01:00 +4°C° 0 mm 2 mps 756 mmHg 58%
02:00 +2°C° 0 mm 3 mps 756 mmHg 60%
03:00 +2°C° 0 mm 3 mps 756 mmHg 62%
04:00 +2°C° 0 mm 3 mps 756 mmHg 64%
05:00 +1°C° 0 mm 3 mps 756 mmHg 65%
06:00 +1°C° 0 mm 3 mps 756 mmHg 67%
07:00 +3°C° 0 mm 3 mps 756 mmHg 61%
08:00 +5°C° 0 mm 4 mps 756 mmHg 55%
09:00 +7°C° 0 mm 4 mps 756 mmHg 50%
10:00 +8°C° 0 mm 4 mps 756 mmHg 46%
11:00 +9°C° 0 mm 5 mps 756 mmHg 42%
12:00 +10°C° 0 mm 5 mps 756 mmHg 38%
13:00 +10°C° 0 mm 5 mps 756 mmHg 37%
14:00 +12°C° 0 mm 5 mps 755 mmHg 36%
15:00 +12°C° 0 mm 5 mps 755 mmHg 36%
16:00 +12°C° 0 mm 5 mps 755 mmHg 38%
17:00 +12°C° 0 mm 4 mps 755 mmHg 40%
18:00 +11°C° 0 mm 4 mps 755 mmHg 42%
19:00 +10°C° 0 mm 4 mps 755 mmHg 47%
20:00 +9°C° 0 mm 3 mps 756 mmHg 51%
21:00 +7°C° 0 mm 3 mps 756 mmHg 56%
22:00 +7°C° 0 mm 3 mps 756 mmHg 58%
23:00 +5°C° 0 mm 3 mps 756 mmHg 60%

Tomorrow, 11 April, Sunday

Time Temperature Precipitation Wind Pressure Humidity
00:00 +5°C° 0 mm 3 mps 756 mmHg 62%
01:00 +5°C° 0 mm 3 mps 756 mmHg 63%
02:00 +4°C° 0 mm 3 mps 756 mmHg 64%
03:00 +4°C° 0 mm 3 mps 756 mmHg 65%
04:00 +4°C° 0 mm 3 mps 756 mmHg 65%
05:00 +4°C° 0 mm 4 mps 756 mmHg 66%
06:00 +3°C° 0 mm 4 mps 756 mmHg 67%
07:00 +5°C° 0 mm 5 mps 757 mmHg 61%
08:00 +5°C° 0 mm 6 mps 757 mmHg 55%
09:00 +8°C° 0 mm 6 mps 757 mmHg 49%
10:00 +9°C° 0 mm 7 mps 757 mmHg 45%
11:00 +10°C° 0 mm 7 mps 757 mmHg 42%
12:00 +11°C° 0 mm 7 mps 756 mmHg 39%
13:00 +12°C° 0 mm 7 mps 756 mmHg 38%
14:00 +12°C° 0 mm 7 mps 756 mmHg 38%
15:00 +14°C° 0 mm 7 mps 756 mmHg 38%
16:00 +12°C° 0 mm 7 mps 756 mmHg 42%
17:00 +11°C° 0 mm 7 mps 756 mmHg 45%
18:00 +11°C° 0 mm 6 mps 755 mmHg 48%
19:00 +10°C° 0 mm 6 mps 755 mmHg 50%
20:00 +10°C° 0 mm 6 mps 755 mmHg 52%
21:00 +9°C° 0 mm 6 mps 755 mmHg 53%
22:00 +9°C° 0 mm 6 mps 755 mmHg 60%
23:00 +8°C° 0 mm 5 mps 755 mmHg 67%

Day after tomorrow, 12 April, Monday

Time Temperature Precipitation Wind Pressure Humidity
00:00 +8°C° 0 mm 5 mps 754 mmHg 74%
01:00 +8°C° 0 mm 5 mps 754 mmHg 78%
02:00 +8°C° 0 mm 4 mps 754 mmHg 83%
03:00 +7°C° 0 mm 4 mps 754 mmHg 88%
04:00 +7°C° 0 mm 4 mps 754 mmHg 90%
05:00 +7°C° 0 mm 4 mps 754 mmHg 92%
06:00 +7°C° 0 mm 4 mps 753 mmHg 94%
07:00 +8°C° 0 mm 5 mps 753 mmHg 89%
08:00 +9°C° 0 mm 5 mps 753 mmHg 84%
09:00 +12°C° 0 mm 5 mps 753 mmHg 78%
10:00 +13°C° 0 mm 5 mps 753 mmHg 70%
11:00 +15°C° 0 mm 5 mps 752 mmHg 62%
12:00 +18°C° 0 mm 4 mps 752 mmHg 54%
13:00 +19°C° 0 mm 5 mps 752 mmHg 49%
14:00 +20°C° 0 mm 5 mps 752 mmHg 45%
15:00 +21°C° 0 mm 5 mps 752 mmHg 41%
16:00 +20°C° 0 mm 5 mps 752 mmHg 44%
17:00 +19°C° 0 mm 5 mps 752 mmHg 47%
18:00 +17°C° 0 mm 5 mps 752 mmHg 51%
19:00 +16°C° 0 mm 5 mps 752 mmHg 54%
20:00 +15°C° 0 mm 4 mps 753 mmHg 58%
21:00 +14°C° 0 mm 3 mps 753 mmHg 61%
22:00 +14°C° 0 mm 3 mps 753 mmHg 64%
23:00 +14°C° 0 mm 2 mps 753 mmHg 67%

13 April, Tuesday

Time Temperature Precipitation Wind Pressure Humidity
00:00 +14°C° 0 mm 2 mps 753 mmHg 69%
01:00 +14°C° 0 mm 2 mps 753 mmHg 72%
02:00 +13°C° 0 mm 2 mps 753 mmHg 75%
03:00 +13°C° 0 mm 2 mps 753 mmHg 78%
04:00 +12°C° 0 mm 2 mps 753 mmHg 81%
05:00 +12°C° 0 mm 2 mps 753 mmHg 84%
06:00 +12°C° 0 mm 2 mps 753 mmHg 87%
07:00 +13°C° 0 mm 2 mps 753 mmHg 83%
08:00 +14°C° 0 mm 2 mps 753 mmHg 79%
09:00 +15°C° 0 mm 2 mps 753 mmHg 76%
10:00 +15°C° 0 mm 2 mps 753 mmHg 72%
11:00 +16°C° 0 mm 3 mps 753 mmHg 68%
12:00 +17°C° 0 mm 3 mps 753 mmHg 64%
13:00 +17°C° 0 mm 3 mps 753 mmHg 64%
14:00 +17°C° 0 mm 3 mps 753 mmHg 65%
15:00 +17°C° 0 mm 2 mps 753 mmHg 65%
16:00 +16°C° 0 mm 2 mps 753 mmHg 66%
17:00 +16°C° 0 mm 2 mps 753 mmHg 67%
18:00 +16°C° 0 mm 2 mps 752 mmHg 68%
19:00 +15°C° 0 mm 2 mps 752 mmHg 71%
20:00 +15°C° 0 mm 2 mps 753 mmHg 74%
21:00 +14°C° 0 mm 2 mps 753 mmHg 77%
22:00 +14°C° 0 mm 1 mps 752 mmHg 78%
23:00 +13°C° 0 mm 1 mps 752 mmHg 79%

14 April, Wednesday

Time Temperature Precipitation Wind Pressure Humidity
00:00 +13°C° 0 mm 1 mps 752 mmHg 79%
01:00 +13°C° 0 mm 1 mps 752 mmHg 80%
02:00 +13°C° 0 mm 1 mps 752 mmHg 80%
03:00 +12°C° 0 mm 1 mps 752 mmHg 80%
04:00 +12°C° 0 mm 1 mps 752 mmHg 80%
05:00 +12°C° 0 mm 1 mps 752 mmHg 80%
06:00 +12°C° 0 mm 1 mps 752 mmHg 81%
07:00 +12°C° 0 mm 1 mps 752 mmHg 77%
08:00 +13°C° 0 mm 2 mps 752 mmHg 74%
09:00 +14°C° 0 mm 2 mps 752 mmHg 70%
10:00 +15°C° 0 mm 2 mps 752 mmHg 66%
11:00 +16°C° 0 mm 2 mps 752 mmHg 62%
12:00 +17°C° 0 mm 2 mps 752 mmHg 58%
13:00 +17°C° 0 mm 2 mps 751 mmHg 55%
14:00 +18°C° 0 mm 3 mps 751 mmHg 52%
15:00 +19°C° 0 mm 3 mps 751 mmHg 48%
16:00 +18°C° 0 mm 2 mps 751 mmHg 51%
17:00 +18°C° 0 mm 2 mps 751 mmHg 54%
18:00 +17°C° 0 mm 2 mps 750 mmHg 56%
19:00 +17°C° 0 mm 2 mps 750 mmHg 59%
20:00 +16°C° 0 mm 2 mps 750 mmHg 61%
21:00 +15°C° 0 mm 2 mps 751 mmHg 64%
22:00 +14°C° 0 mm 2 mps 750 mmHg 67%
23:00 +14°C° 0 mm 2 mps 750 mmHg 69%

15 April, Thursday

Time Temperature Precipitation Wind Pressure Humidity
00:00 +13°C° 0 mm 2 mps 750 mmHg 72%
01:00 +12°C° 0 mm 1 mps 750 mmHg 74%
02:00 +12°C° 0 mm 1 mps 750 mmHg 75%
03:00 +11°C° 0 mm 1 mps 750 mmHg 77%
04:00 +11°C° 0 mm 1 mps 750 mmHg 78%
05:00 +10°C° 0 mm 1 mps 749 mmHg 79%
06:00 +10°C° 0 mm 1 mps 749 mmHg 80%
07:00 +10°C° 0 mm 2 mps 749 mmHg 74%
08:00 +13°C° 0 mm 2 mps 749 mmHg 68%
09:00 +14°C° 0 mm 2 mps 749 mmHg 62%
10:00 +16°C° 0 mm 2 mps 749 mmHg 57%
11:00 +17°C° 0 mm 2 mps 749 mmHg 53%
12:00 +18°C° 0 mm 2 mps 748 mmHg 48%
13:00 +18°C° 0 mm 3 mps 748 mmHg 45%
14:00 +18°C° 0 mm 4 mps 748 mmHg 42%
15:00 +17°C° 0 mm 5 mps 748 mmHg 38%
16:00 +18°C° 0 mm 4 mps 748 mmHg 42%
17:00 +17°C° 0 mm 4 mps 747 mmHg 45%
18:00 +17°C° 0 mm 4 mps 747 mmHg 49%
19:00 +14°C° 0 mm 4 mps 747 mmHg 56%
20:00 +13°C° 0 mm 3 mps 747 mmHg 62%
21:00 +12°C° 0 mm 3 mps 747 mmHg 69%
22:00 +12°C° 0 mm 2 mps 747 mmHg 72%
23:00 +10°C° 0 mm 2 mps 747 mmHg 75%
Show more